Location: Unspecified
(0.0000°N, 0.0000°E)
Time: 04:39:23
(UTC+02:00)

Cosmos 1340 - Visible Passes

Search period start: 29 July 2015 00:00
Search period end: 08 August 2015 00:00
Orbit: 513 x 517 km, 81.2° (Epoch: 27 July)

Date Brightness Start Highest point End Pass type
(mag) Time Alt. Az. Time Alt. Az. Time Alt. Az.
31 Jul 2.9 07:34:49 10° N 07:38:39 80° E 07:42:29 10° S visible
01 Aug 3.3 07:19:43 10° N 07:23:30 60° E 07:27:17 10° SSE visible
02 Aug 3.9 07:04:40 10° N 07:08:20 46° E 07:12:02 10° SSE visible
03 Aug 4.4 06:49:40 10° NNE 06:53:10 35° E 06:56:44 10° SSE visible
04 Aug 4.8 06:34:44 10° NNE 06:38:00 28° E 06:41:20 10° SE visible
05 Aug 5.2 06:19:52 10° NNE 06:22:49 22° E 06:25:52 10° SE visible
06 Aug 5.5 06:05:07 10° NE 06:07:37 17° E 06:10:18 10° SE visible
06 Aug 4.5 07:41:40 10° WNW 07:43:24 12° W 07:44:52 10° WSW visible
07 Aug 5.8 05:50:32 10° NE 05:52:25 14° E 05:54:32 10° ESE visible
07 Aug 4.3 07:25:45 10° WNW 07:28:11 16° W 07:30:25 10° SW visible
